Regional Weather Roundup
Issued by NWS

Home | Current Version | Previous Version | Text Only | Print | Product List | Glossary On
Versions: 1 2 3 4 5 6 7 8 9 10 11 12 13 14 15 16 17 18 19 20 21 22 23 24 25 26 27 28 29 30 31 32 33 34 35 36 37 38 39 40 41 42 43 44 45 46 47 48 49 50
000
ASUS46 KSEW 310910
RWRWA

WASHINGTON REGIONAL WEATHER ROUNDUP
NATIONAL WEATHER SERVICE SEATTLE WA
100 AM PST SAT JAN 31 2015

NOTE:"FAIR" INDICATES FEW OR NO CLOUDS BELOW 12,000 FEET WITH NO
SIGNIFICANT WEATHER AND/OR OBSTRUCTIONS TO VISIBILITY.

WAZ505-507>509-311000-
SEATTLE, TACOMA, EVERETT, AND VICINITY

CITY           SKY/WX    TMP DP  RH WIND       PRES   REMARKS
EVERETT        FOG       37  36  96 N3        30.25S VSB 1/4
BOEING FIELD   FOG       42  39  89 CALM      30.26F VSB<1/4
RENTON         FOG       39  39 100 CALM      30.26S VSB 1/4
SEATAC AIRPORT FOG       38  36  92 N5        30.25F VSB 1/8
JBLM-MCCHORD   FOG       40  40 100 NE3       30.25R VSB 1/4
PUYALLUP       FOG       36  36 100 CALM      30.24F VSB<1/4
BREMERTON        N/A     28  27  93 CALM      30.26F
JBLM-FT LEWIS  FOG       40  40 100 NE3       30.24S VSB 1/4
TACOMA NARROWS FOG       39  38  96 NE5       30.25S VSB 1/4
$$

WAZ001-503-506-510-514-515-311000-
NORTH INTERIOR

CITY           SKY/WX    TMP DP  RH WIND       PRES   REMARKS
BELLINGHAM     FOG       37  36  96 CALM      30.27S VSB 1/4
FRIDAY HARBOR  FOG       39  38  96 N5        30.28R VSB 1/2
EASTSOUND      CLOUDY    41  41 100 CALM      30.26S
PORT ANGELES   MOCLDY    35  33  92 CALM      30.26S
NAS WHIDBEY    FOG       37  34  89 SE6       30.27S VSB 1/4
ARLINGTON      CLOUDY    32  28  86 CALM      30.27S VSB 1/4
BURLINGTON     CLOUDY    39 N/A N/A CALM      30.27F VSB 0
$$

WAZ020-022-039-040-504-511-512-311000-
SOUTHWEST INTERIOR

CITY           SKY/WX    TMP DP  RH WIND       PRES   REMARKS
SHELTON        FOG       35  34  96 N5        30.23S VSB 1/4
OLYMPIA        FOG       38  37  97 NE5       30.25S VSB 1/4
CHEHALIS       FOG       41  41 100 NE3       30.24S VSB 1/4
KELSO          CLOUDY    39  36  87 CALM      30.26S
VANCOUVER      CLEAR     34  31  88 CALM      30.23F
SCAPPOOSE, OR  FOG       33  32  96 NW3       30.23S VSB 1/4
PORTLAND, OR   PTCLDY    35  33  92 E3        30.23F
$$

WAZ021-516-517-311000-
WASHINGTON COAST

CITY           SKY/WX    TMP DP  RH WIND       PRES   REMARKS
FORKS          PTCLDY    37  37 100 CALM      30.24F FOG
HOQUIAM        FOG       37  37 100 E7        30.23S VSB 1/2
ASTORIA, OR    CLEAR     37  35  92 E3        30.20S FOG
$$

WAZ019-023-024-040-518-519-311000-
CASCADE MOUNTAINS AND COLUMBIA GORGE

CITY           SKY/WX    TMP DP  RH WIND       PRES   REMARKS
TROUTDALE, OR  CLEAR     41  34  76 E15       30.21F
THE DALLES, OR CLOUDY    39  34  82 W3        30.30F
$$

WAZ026-027-041>044-520-521-311000-
EAST SLOPES

CITY           SKY/WX    TMP DP  RH WIND       PRES   REMARKS
OMAK           CLOUDY    33  31  92 CALM      30.27F
WENATCHEE      CLOUDY    35  30  82 NW5       30.25R
ELLENSBURG     CLOUDY    34  30  85 CALM      30.21F
YAKIMA         CLOUDY    36  31  82 CALM      30.25F
$$

WAZ028-034-035-311000-
COLUMBIA BASIN

CITY           SKY/WX    TMP DP  RH WIND       PRES   REMARKS
EPHRATA        CLOUDY    35  34  96 SE6       30.26R
MOSES LAKE     CLOUDY    35  33  92 SE6       30.27S FOG
PASCO          CLOUDY    37  34  89 SW7       30.30F
HERMISTON, OR  CLOUDY    37  34  89 S3        30.28F
$$

WAZ036>038-311000-
NORTHEAST WASHINGTON

CITY           SKY/WX    TMP DP  RH WIND       PRES   REMARKS
SPOKANE GEIGER FLURRIES  30  28  92 S3        30.23S
SPOKANE FELTS  CLOUDY    32  29  88 CALM      30.25S
FAIRCHILD AFB  MIX PCPN  28  28 100 S2        30.22S
COEURDALENE,ID CLOUDY    30  28  93 SW5       30.22F
DEER PARK      CLOUDY    29  28  96 SE3       30.23F FOG
$$

WAZ029>033-311000-
SOUTHEAST WASHINGTON

CITY           SKY/WX    TMP DP  RH WIND       PRES   REMARKS
PULLMAN        CLOUDY    30  26  85 CALM      30.23S
LEWISTON, ID   CLOUDY    36  32  85 NW5       30.26R
WALLA WALLA    CLOUDY    36  33  89 CALM      30.27S
PENDLETON, OR  CLOUDY    34  32  92 W3        30.24F
$$



USA.gov is the U.S. government's official web portal to all federal, state and local government web resources and services.